CW8484 Weather Reports


Display with metric or nautical units.
time (UTC)temp
F
wind
direction
speed
MPH
gust
MPH
rain 1hr
in
rain 24hr
in
rain mn
in
humidity
%
barometer
mb
20260906224425 62 260 0.0 3.0 0.00 0.01 0.00 78 1015.3
20260906223424 63 259 0.0 4.0 0.00 0.01 0.00 77 1015.3
20260906222404 64 22 0.0 5.0 0.00 0.01 0.00 74 1015.2
20260906221403 65 296 0.0 2.0 0.00 0.01 0.00 73 1015.3
20260906220425 66 295 0.0 1.0 0.00 0.01 0.00 72 1015.2
20260906215404 67 295 0.0 2.0 0.00 0.01 0.00 70 1015.3
20260906214424 69 285 0.0 3.0 0.00 0.01 0.00 68 1015.3
20260906213404 69 280 2.0 7.0 0.00 0.01 0.00 67 1015.4
20260906212403 69 256 1.0 9.0 0.00 0.01 0.00 66 1015.4
20260906211404 70 244 1.0 6.0 0.00 0.01 0.00 64 1015.4
20260906210403 70 276 1.0 5.0 0.00 0.01 0.00 66 1015.3
20260906205404 70 284 2.0 4.0 0.00 0.01 0.00 67 1015.4
20260906204403 69 32 2.0 6.0 0.00 0.01 0.00 64 1015.5
20260906203404 69 272 1.0 8.0 0.00 0.01 0.00 69 1015.5
20260906202403 70 264 0.0 9.0 0.00 0.01 0.00 68 1015.5
20260906201404 69 253 1.0 8.0 0.00 0.01 0.00 71 1015.4
20260906200403 70 19 1.0 6.0 0.00 0.01 0.00 65 1015.4
20260906195404 69 313 1.0 9.0 0.00 0.01 0.00 68 1015.4
20260906194404 69 38 0.0 4.0 0.00 0.01 0.00 67 1015.5
20260906193403 71 359 1.0 7.0 0.00 0.01 0.00 63 1015.5
20260906192425 71 275 0.0 9.0 0.00 0.01 0.00 68 1015.5
20260906191403 70 269 1.0 6.0 0.00 0.01 0.00 68 1015.4
20260906190424 71 257 1.0 9.0 0.00 0.01 0.00 69 1015.5
20260906185424 71 253 1.0 10.0 0.00 0.01 0.00 71 1015.5
20260906184424 71 266 2.0 11.0 0.00 0.01 0.00 69 1015.6
20260906183404 71 257 1.0 7.0 0.00 0.01 0.00 71 1015.7
20260906182403 70 270 2.0 10.0 0.00 0.01 0.00 70 1015.8
20260906181404 69 296 0.0 7.0 0.00 0.01 0.00 72 1015.9
20260906180424 70 261 3.0 10.0 0.00 0.01 0.00 70 1015.8
20260906175424 69 274 0.0 9.0 0.00 0.01 0.00 74 1015.9
20260906174403 69 253 2.0 8.0 0.00 0.01 0.00 73 1015.9
20260906173403 69 258 0.0 8.0 0.00 0.01 0.00 70 1016.0
20260906172403 69 250 0.0 8.0 0.00 0.01 0.00 71 1016.1
20260906171403 69 280 2.0 9.0 0.00 0.01 0.00 71 1016.1
20260906170403 68 333 1.0 6.0 0.00 0.01 0.00 70 1016.2
20260906165424 68 5 1.0 7.0 0.00 0.01 0.00 71 1016.3
20260906164404 68 260 0.0 8.0 0.00 0.01 0.00 71 1016.4
20260906163424 68 344 2.0 6.0 0.00 0.01 0.00 74 1016.6
20260906162403 68 300 1.0 7.0 0.00 0.01 0.00 73 1016.6
20260906161403 68 262 0.0 8.0 0.00 0.01 0.00 74 1016.7
20260906160403 67 37 1.0 3.0 0.00 0.01 0.00 80 1016.7
20260906155403 65 22 2.0 5.0 0.00 0.01 0.00 78 1016.8
20260906154403 64 307 1.0 5.0 0.00 0.01 0.00 81 1016.9
20260906153424 62 329 1.0 5.0 0.00 0.01 0.00 84 1017.0
20260906152445 61 347 1.0 6.0 0.00 0.01 0.00 87 1017.1
20260906151403 59 326 1.0 4.0 0.00 0.01 0.00 89 1017.2
20260906150402 58 323 0.0 6.0 0.00 0.01 0.00 89 1017.2
20260906145403 57 16 0.0 5.0 0.00 0.01 0.00 90 1017.4
20260906144402 57 10 0.0 4.0 0.00 0.01 0.00 91 1017.2
20260906143403 57 12 3.0 5.0 0.00 0.01 0.00 91 1017.1
20260906142403 57 341 0.0 3.0 0.00 0.01 0.00 92 1017.0
20260906141424 57 344 0.0 4.0 0.00 0.01 0.00 92 1016.9
20260906140402 56 342 0.0 3.0 0.00 0.01 0.00 92 1016.9
20260906135403 56 342 1.0 4.0 0.00 0.01 0.00 93 1016.8
20260906134403 56 343 0.0 2.0 0.00 0.01 0.00 94 1016.7
20260906133403 55 342 0.0 5.0 0.00 0.01 0.00 94 1016.6
20260906132403 55 344 2.0 5.0 0.00 0.01 0.00 94 1016.6
20260906131403 55 346 0.0 5.0 0.00 0.01 0.00 94 1016.6
20260906130404 55 348 0.0 5.0 0.00 0.01 0.00 94 1016.5
20260906125445 54 342 0.0 3.0 0.00 0.01 0.00 94 1016.5
20260906124403 55 343 0.0 2.0 0.00 0.01 0.00 95 1016.5
20260906123402 54 343 0.0 2.0 0.00 0.01 0.00 94 1016.5
20260906122403 54 342 0.0 1.0 0.00 0.01 0.00 94 1016.5
20260906121403 54 343 0.0 5.0 0.00 0.01 0.00 94 1016.4
20260906120403 53 344 0.0 5.0 0.00 0.01 0.00 94 1016.4
20260906115402 54 331 1.0 6.0 0.00 0.01 0.00 94 1016.1
20260906114403 54 360 0.0 0.0 0.00 0.01 0.00 94 1016.2
20260906113402 54 360 0.0 0.0 0.00 0.01 0.00 94 1016.0
20260906112424 54 360 0.0 0.0 0.00 0.01 0.00 94 1015.8
20260906111423 54 360 0.0 0.0 0.00 0.01 0.00 94 1015.8
20260906110403 53 360 0.0 0.0 0.00 0.01 0.00 94 1015.5
20260906105402 53 360 0.0 0.0 0.00 0.01 0.00 94 1015.4
20260906104424 53 360 0.0 0.0 0.00 0.01 0.00 94 1015.1
20260906103403 54 360 0.0 0.0 0.00 0.01 0.00 94 1015.0
20260906102403 54 360 0.0 0.0 0.00 0.01 0.00 94 1015.2
20260906101403 54 360 0.0 0.0 0.00 0.01 0.00 94 1015.0
20260906100403 54 360 0.0 0.0 0.00 0.01 0.00 94 1015.1
20260906095403 54 360 0.0 0.0 0.00 0.01 0.00 94 1014.9
20260906094403 54 360 0.0 0.0 0.00 0.01 0.00 94 1014.8
20260906093403 54 360 0.0 0.0 0.00 0.01 0.00 94 1014.6
20260906092403 54 360 0.0 0.0 0.00 0.01 0.00 94 1014.7
20260906091424 54 360 0.0 0.0 0.00 0.01 0.00 94 1014.4
20260906090403 54 360 0.0 0.0 0.00 0.01 0.00 94 1014.4
20260906085403 54 360 0.0 0.0 0.00 0.01 0.00 93 1014.4
20260906084424 54 360 0.0 0.0 0.00 0.01 0.00 93 1014.3
20260906083423 54 360 0.0 0.0 0.00 0.01 0.00 93 1014.2
20260906082403 54 360 0.0 0.0 0.00 0.01 0.00 93 1014.1
20260906081402 54 360 0.0 0.0 0.00 0.01 0.00 93 1014.1
20260906080424 54 360 0.0 0.0 0.00 0.01 0.00 93 1014.0
20260906075445 54 360 0.0 0.0 0.00 0.01 0.00 93 1014.0
20260906074403 54 360 0.0 2.0 0.00 0.01 0.00 93 1014.0
20260906073403 54 360 0.0 0.0 0.00 0.01 0.00 93 1013.7
20260906072423 54 359 0.0 1.0 0.00 0.01 0.00 93 1013.8
20260906071403 55 359 0.0 3.0 0.00 0.01 0.00 93 1013.7
20260906070402 55 360 0.0 0.0 0.00 0.01 0.00 93 1013.6
20260906065424 55 360 0.0 0.0 0.00 0.01 0.00 93 1013.6
20260906064403 55 360 0.0 0.0 0.00 0.01 0.00 93 1013.6
20260906063447 55 360 0.0 0.0 0.00 0.01 0.00 93 1013.5
20260906062425 55 360 0.0 0.0 0.00 0.01 0.00 93 1013.4
20260906061405 55 360 0.0 0.0 0.00 0.01 0.00 93 1013.4
20260906060404 55 360 0.0 0.0 0.00 0.01 0.00 93 1013.5
20260906055426 56 360 0.0 0.0 0.00 0.01 0.00 93 1013.5
20260906054426 56 360 0.0 0.0 0.00 0.01 0.00 92 1013.5
20260906053405 56 360 0.0 0.0 0.00 0.01 0.00 92 1013.5
20260906052426 55 360 0.0 0.0 0.00 0.01 0.00 92 1013.4
20260906051405 55 360 0.0 0.0 0.00 0.01 0.00 92 1013.4
20260906050405 55 360 0.0 0.0 0.00 0.01 0.00 92 1013.3
20260906045405 56 360 0.0 0.0 0.00 0.01 0.00 91 1013.2
20260906044426 56 360 0.0 0.0 0.00 0.01 0.00 91 1013.2
20260906043404 56 360 0.0 0.0 0.00 0.01 0.00 91 1013.2
20260906042405 56 360 0.0 0.0 0.00 0.01 0.00 91 1013.1
20260906041425 56 360 0.0 0.0 0.00 0.01 0.00 91 1013.2
20260906040405 56 360 0.0 0.0 0.00 0.01 0.00 90 1013.0
20260906035405 56 360 0.0 0.0 0.00 0.01 0.01 90 1013.1
20260906034405 57 5 0.0 4.0 0.00 0.01 0.01 90 1013.1
20260906033405 57 5 1.0 5.0 0.00 0.01 0.01 90 1012.9
20260906032404 57 50 1.0 5.0 0.00 0.01 0.01 89 1012.9
20260906031405 58 57 0.0 3.0 0.00 0.01 0.01 89 1012.9
20260906030405 58 57 0.0 4.0 0.00 0.01 0.01 89 1012.8
20260906025404 58 46 0.0 9.0 0.01 0.01 0.01 89 1012.7
20260906024447 58 337 1.0 9.0 0.00 0.00 0.00 89 1013.3
20260906023405 59 326 0.0 8.0 0.00 0.00 0.00 89 1013.2
20260906022405 59 9 0.0 4.0 0.00 0.00 0.00 89 1013.3
20260906021405 59 305 1.0 7.0 0.00 0.00 0.00 89 1013.2
20260906020405 59 330 0.0 4.0 0.00 0.00 0.00 90 1013.1
20260906015426 60 349 1.0 5.0 0.00 0.00 0.00 90 1013.2
20260906014405 60 346 0.0 0.0 0.00 0.00 0.00 91 1013.1
20260906013404 60 346 0.0 0.0 0.00 0.00 0.00 91 1013.1
20260906012405 60 346 0.0 0.0 0.00 0.00 0.00 91 1013.0
20260906011404 60 346 0.0 0.0 0.00 0.00 0.00 90 1012.9
20260906010405 60 346 0.0 1.0 0.00 0.00 0.00 90 1012.9
20260906005404 60 346 0.0 2.0 0.00 0.00 0.00 90 1012.8
20260906004405 60 346 0.0 0.0 0.00 0.00 0.00 90 1012.8
20260906003404 60 345 0.0 3.0 0.00 0.00 0.00 90 1012.7
20260906002405 60 346 0.0 4.0 0.00 0.00 0.00 90 1012.5
20260906001425 60 347 0.0 3.0 0.00 0.00 0.00 90 1012.4
20260906000405 60 347 0.0 1.0 0.00 0.00 0.00 90 1012.4
20260905235405 61 347 0.0 2.0 0.00 0.00 0.00 90 1012.4
20260905234405 61 347 0.0 1.0 0.00 0.00 0.00 89 1012.4
20260905233404 61 348 0.0 3.0 0.00 0.00 0.00 89 1012.3
20260905232404 61 347 0.0 5.0 0.00 0.00 0.00 89 1012.3
20260905231405 61 349 0.0 3.0 0.00 0.00 0.00 88 1012.2
20260905230404 62 349 0.0 4.0 0.00 0.00 0.00 88 1012.2
20260905225405 62 339 0.0 5.0 0.00 0.00 0.00 88 1012.2